World > North America > United States > New York > Plainfield Center

Hourly Plainfield Center, NY Regional Weather

Feedback E-mail the Weather

Quick WX

Plainfield Center, NY Weather Maps

°F °C°F °C
Plainfield Center Weather Map
UTC Time: 8/16/2022, 16:57
Your Time:

Plainfield Center, NY Regional Weather

Expires:202208161700;;145351
ASUS41 KGYX 161610
RWRGYX
WEATHER ROUNDUP FOR MAINE AND NEW HAMPSHIRE
NATIONAL WEATHER SERVICE GRAY ME
1200 PM EDT TUE AUG 16 2022


MAZ007-012-024-CTZ003-RIZ002-NYZ038-NYZ072-161700-
SOUTHERN NEW ENGLAND AND NY
  
CITY           SKY/WX    TMP DP  RH WIND       PRES   REMARKS
BOSTON         MOSUNNY   76  58  53 NE15      30.06S                  
WORCESTER      SUNNY     77  52  41 N14G22    30.09R                  
NANTUCKET      CLOUDY    75  63  66 NE17      30.00S                  
PROVIDENCE     PTSUNNY   81  56  42 NE17      30.03F                  
HARTFORD       PTSUNNY   79  54  41 NE6       30.05S                  
ALBANY         PTSUNNY   80  57  45 NW6       30.07S                  
NEW YORK CITY  MOSUNNY   77  55  46 NE16      30.03S                  
$$


SKY/WX - Weather  TMP - Temperature  DP - Dew Point  RH - Humidity
WIND - Wind Direction/Speed PRES - Barometric Pressure VSB - Visibility
WCI - Wind Chill Index E13G22 Wind - East Wind 13 mph/Gusts of 22 mph

Trending Headlines

Plainfield Center Radar Loop



Plainfield Center Quick Facts


National Two Day Weather Forecast


E-mail the Plainfield Center Weather Forecast

Voice your opinion or tell us about page issues...